Dewpoint
0 0 2 2 2 3 6 5 6 3 6 5 4 6 6 7 6 4 4 3 3 3 5 6 7 8 9 9 10 10 10 10 10 10 10 10 9 9 8 8 8 8 8 8
1 -1 -1 0 -0 -0 -0 1 4 4 5 4 5 5 7 7 6 4 3 3 3 3 4 5 6 6 7 8 9 10 9 9 9 9 9 9 9 10 10 10 9 9 9 9
1 1 -0 -0 -0 -4 -5 4 5 6 5 5 6 6 6 6 5 4 3 2 2 3 3 3 3 4 5 6 8 8 8 9 9 9 9 9 9 9 9 9 9 9 9 9
3 1 0 -4 -6 -6 -1 -0 4 4 3 5 5 4 4 4 3 1 1 2 3 3 3 2 2 2 1 2 2 3 5 6 7 8 8 8 8 8 9 9 9 9 8 9
2 2 -2 -4 -3 1 0 -1 2 3 3 6 4 2 2 1 2 2 1 1 1 3 2 2 2 2 2 1 1 1 1 1 1 1 2 2 4 6 7 8 8 8 8 9
1 2 1 -3 -2 1 -0 -3 3 3 4 5 5 6 2 0 0 2 1 1 1 1 1 1 1 1 1 2 1 1 1 1 0 0 1 1 1 1 1 2 3 5 6 7
2 1 1 -1 3 0 1 1 3 2 3 3 2 2 -1 -1 -1 0 -1 -0 -1 -1 -0 -0 -0 -0 -0 0 1 1 1 1 1 0 -0 -1 -0 -0 -0 1 2 4 4 5
1 2 2 2 2 2 3 3 2 2 0 -1 -1 -2 -2 -2 -2 -2 -2 -2 -2 -2 -2 -2 -1 -1 -1 -1 -1 -1 -1 -0 -0 -0 -0 -1 -1 -1 -1 -0 0 1 1 2
2 1 2 1 1 1 1 1 1 1 -0 -0 -2 -2 -2 -1 -3 -3 -3 -3 -3 -3 -3 -3 -3 -2 -2 -2 -1 -1 -1 -1 -1 -1 -2 -2 -2 -2 -2 -2 -2 -2 -1 -1
2 2 2 1 0 -1 -1 -2 -1 -0 -1 -1 -3 -4 -5 -4 -5 -4 -5 -5 -5 -5 -5 -5 -4 -4 -3 -3 -2 -3 -2 -2 -2 -3 -4 -4 -4 -4 -4 -4 -4 -4 -4 -5
2 1 -0 -1 -2 -2 -3 -2 -2 -2 -3 -3 -3 -4 -5 -6 -6 -6 -6 -6 -6 -6 -6 -6 -6 -5 -5 -4 -4 -4 -4 -4 -4 -5 -5 -6 -6 -6 -6 -6 -7 -7 -7 -7
1 -2 -1 -3 -3 -3 -4 -4 -4 -3 -3 -3 -4 -5 -5 -6 -7 -6 -6 -7 -7 -7 -7 -7 -7 -7 -6 -6 -6 -5 -5 -6 -6 -7 -7 -7 -7 -8 -8 -8 -8 -8 -7 -7
-2 -2 -3 -4 -4 -5 -4 -5 -5 -6 -6 -6 -6 -6 -7 -7 -8 -8 -7 -8 -8 -8 -8 -8 -8 -7 -7 -7 -7 -7 -7 -7 -7 -8 -8 -8 -8 -8 -8 -8 -8 -8 -8 -8
-3 -3 -2 -4 -5 -5 -5 -6 -6 -7 -7 -7 -8 -8 -8 -8 -9 -9 -9 -9 -9 -9 -8 -8 -8 -8 -8 -8 -8 -8 -8 -8 -8 -8 -8 -8 -9 -8 -8 -8 -9 -9 -9 -9
-5 -4 -5 -5 -5 -6 -7 -7 -7 -9 -9 -10 -9 -9 -9 -9 -10 -10 -10 -10 -9 -9 -9 -9 -9 -9 -9 -9 -9 -9 -9 -9 -9 -9 -9 -9 -9 -9 -9 -9 -10 -10 -10 -10
-6 -5 -6 -6 -7 -8 -9 -8 -9 -11 -10 -11 -10 -10 -10 -10 -11 -11 -11 -10 -10 -10 -10 -10 -10 -10 -10 -10 -9 -9 -9 -9 -9 -9 -10 -10 -10 -10 -10 -11 -11 -11 -11 -11
-7 -7 -8 -7 -8 -9 -10 -10 -10 -10 -11 -11 -11 -12 -12 -11 -11 -11 -11 -11 -11 -11 -11 -11 -11 -11 -11 -10 -10 -10 -10 -10 -11 -11 -11 -11 -11 -12 -12 -12 -12 -13 -13 -13
-9 -9 -8 -8 -9 -10 -10 -11 -11 -11 -12 -12 -12 -12 -12 -12 -12 -12 -12 -13 -13 -13 -14 -19 -19 -16 -14 -13 -13 -12 -11 -11 -11 -12 -12 -13 -13 -13 -14 -14 -16 -19 -22 -24
-10 -10 -10 -10 -10 -11 -11 -12 -12 -12 -12 -12 -12 -12 -12 -13 -13 -13 -13 -13 -13 -16 -21 -26 -25 -23 -23 -22 -19 -17 -15 -14 -14 -14 -14 -14 -15 -17 -21 -24 -26 -27 -27 -28
-11 -11 -11 -11 -11 -12 -12 -12 -12 -12 -13 -12 -13 -13 -13 -13 -13 -16 -25 -27 -26 -25 -24 -26 -26 -27 -26 -25 -24 -23 -22 -21 -20 -19 -20 -21 -22 -23 -24 -25 -25 -26 -27 -28
-12 -12 -12 -12 -12 -13 -13 -13 -13 -13 -13 -13 -13 -13 -13 -16 -24 -29 -29 -29 -27 -27 -27 -28 -29 -28 -27 -27 -26 -25 -25 -24 -24 -24 -24 -24 -24 -24 -25 -26 -26 -27 -28 -29
-13 -13 -13 -13 -13 -13 -13 -13 -13 -13 -13 -13 -14 -18 -21 -23 -25 -27 -29 -30 -29 -30 -28 -29 -30 -30 -28 -27 -27 -27 -27 -27 -27 -27 -27 -27 -27 -27 -27 -27 -27 -28 -29 -29
-13 -13 -13 -13 -13 -13 -13 -13 -14 -14 -14 -16 -17 -18 -18 -18 -20 -24 -25 -27 -27 -27 -27 -28 -28 -28 -28 -27 -28 -28 -28 -28 -29 -29 -29 -28 -28 -28 -28 -28 -29 -29 -29 -29
-13 -13 -13 -13 -13 -13 -13 -14 -14 -15 -17 -17 -18 -19 -21 -21 -22 -23 -24 -23 -24 -25 -25 -26 -27 -28 -28 -28 -28 -29 -29 -29 -29 -30 -30 -30 -30 -30 -30 -30 -30 -30 -29 -29
-13 -13 -13 -13 -14 -14 -14 -14 -14 -14 -15 -16 -16 -17 -19 -21 -21 -21 -21 -21 -21 -21 -22 -22 -23 -24 -24 -25 -26 -27 -27 -28 -28 -28 -28 -28 -28 -28 -28 -28 -28 -29 -29 -29
-13 -13 -13 -13 -13 -13 -13 -14 -14 -14 -15 -15 -16 -17 -18 -20 -20 -20 -20 -20 -20 -21 -21 -21 -22 -22 -23 -25 -27 -28 -28 -28 -29 -29 -28 -27 -28 -28 -29 -29 -28 -28 -27 -27
-13 -13 -13 -13 -14 -14 -15 -16 -15 -15 -15 -16 -17 -17 -18 -19 -20 -20 -20 -20 -20 -21 -21 -21 -21 -22 -22 -24 -28 -29 -29 -29 -29 -29 -29 -28 -28 -29 -28 -28 -28 -28 -28 -28
Wind_Speed
4 2 2 2 5 8 8 10 8 8 12 15 17 8 2 12 14 23 29 31 30 32 31 27 26 19 13 10 13 13 9 9 10 10 13 14 17 20 19 18 21 23 27 29
1 3 4 3 10 6 9 11 11 14 17 6 16 11 8 9 13 18 18 21 27 30 31 29 28 22 19 16 13 11 15 14 14 14 11 13 16 19 20 20 20 22 25 29
2 1 4 4 3 5 7 5 4 6 4 2 12 9 9 19 17 15 18 20 25 28 29 31 29 21 18 15 16 10 11 9 10 10 13 15 18 20 22 26 23 26 27 27
1 3 2 4 7 3 5 5 8 6 4 7 9 16 26 18 21 15 15 17 20 21 22 24 18 13 15 19 17 13 13 9 6 4 6 8 11 12 15 19 21 26 28 30
1 1 5 11 2 3 3 11 6 6 1 16 16 17 16 16 16 16 15 16 17 15 15 13 10 13 11 15 13 13 14 12 11 9 6 3 3 9 12 14 16 18 22 27
0 1 2 5 2 8 3 8 11 12 9 14 15 2 2 9 12 15 15 14 15 14 13 9 12 10 11 11 11 14 13 13 12 10 9 7 5 4 4 4 5 8 13 19
3 4 5 5 12 11 3 4 11 15 12 10 6 10 12 11 14 11 11 11 11 10 10 11 9 9 11 11 12 12 11 11 10 10 10 10 9 7 6 6 5 5 5 8
2 3 7 14 4 3 3 11 13 16 19 24 22 20 17 13 14 12 12 12 11 11 11 10 9 9 10 11 12 10 10 11 13 13 11 8 6 6 5 5 5 5 5 6
4 3 7 11 13 14 12 15 16 19 16 19 17 15 14 12 10 12 12 12 11 11 10 11 11 10 10 10 10 10 9 10 12 16 16 12 10 9 7 8 8 8 9 10
2 8 12 16 14 14 14 15 15 16 14 14 15 12 11 11 10 10 11 12 11 10 11 12 12 11 10 8 8 8 8 8 8 9 12 12 12 12 12 13 13 13 13 14
2 4 7 18 17 11 13 14 16 15 13 12 9 10 8 10 10 10 11 11 11 12 13 14 14 13 11 9 8 6 5 6 7 8 11 13 16 19 19 19 18 18 20 19
2 9 4 8 12 11 15 17 14 11 11 10 8 8 7 9 8 9 11 11 11 12 12 12 13 13 13 12 9 6 7 9 9 9 12 13 15 17 18 19 20 21 21 21
2 5 7 6 11 13 16 16 14 13 11 8 8 7 7 8 8 9 11 11 12 12 12 12 14 15 17 15 12 11 11 11 11 11 10 11 12 13 15 16 15 17 17 17
9 6 1 11 8 10 11 11 11 10 9 8 7 5 6 9 9 11 12 12 11 10 11 12 12 15 16 15 13 12 12 12 11 10 10 11 11 12 11 11 12 15 15 14
10 9 5 4 5 8 9 8 8 9 8 7 7 7 8 9 9 11 11 10 9 9 10 10 11 13 13 12 10 10 10 10 9 10 10 10 9 9 10 10 11 13 12 13
5 5 4 5 6 8 7 6 6 7 5 6 7 8 10 10 11 10 9 8 5 9 10 10 10 11 10 9 8 6 7 8 6 6 7 6 6 7 8 8 8 9 9 13
3 3 7 4 6 7 9 6 4 5 6 7 9 10 10 10 9 8 8 8 8 8 8 8 9 9 7 7 6 6 6 5 5 4 4 4 5 6 7 7 8 8 9 9
5 4 3 3 4 6 5 4 5 5 5 6 7 7 6 6 6 6 6 6 5 6 6 7 7 6 5 4 5 4 3 3 2 2 3 3 4 5 6 7 8 8 8 8
3 4 3 3 3 4 3 3 4 5 6 5 5 5 5 5 4 4 4 2 2 3 5 6 6 6 5 5 5 4 4 3 3 3 3 4 4 4 5 6 7 8 8 8
2 2 2 0 1 1 3 6 6 7 8 6 6 6 5 5 6 6 6 6 6 7 9 9 8 7 7 7 6 5 4 3 3 3 4 4 4 5 6 7 7 7 7 7
6 6 7 6 7 7 7 7 5 5 6 6 5 5 5 6 6 6 5 5 5 6 7 8 8 7 7 6 6 6 5 5 5 5 5 5 5 6 6 6 6 6 6 7
9 8 9 8 8 9 8 7 6 6 6 5 5 5 6 7 7 7 7 6 6 6 6 7 7 6 6 6 6 6 6 5 5 5 5 5 5 5 5 6 6 6 6 7
8 8 8 7 6 6 6 5 4 4 4 5 6 7 8 9 9 7 6 5 5 5 6 6 6 5 5 5 5 6 6 6 5 5 6 6 6 6 7 7 7 7 7 8
8 8 7 6 5 4 4 4 3 4 5 7 8 9 10 9 8 6 5 5 5 5 5 6 6 5 6 6 6 6 6 6 6 5 5 6 7 7 8 9 9 9 9 10
6 6 5 4 4 4 4 4 4 5 6 7 9 10 11 9 6 4 5 4 4 5 6 6 6 6 6 7 7 7 7 7 7 8 8 8 8 9 10 10 10 11 11 11
3 2 2 3 4 5 7 9 10 10 10 9 9 10 10 8 5 4 4 4 5 6 7 7 7 6 6 6 7 7 6 7 8 9 9 9 9 10 11 11 12 12 12 12
1 2 3 4 5 5 7 8 9 12 12 11 10 11 8 7 6 5 5 5 6 7 7 7 6 7 7 8 10 9 8 8 10 11 11 10 11 11 11 11 12 13 13 13
Wind_Direction
40 359 177 228 250 247 217 233 257 276 294 301 297 279 212 71 35 30 25 41 47 59 77 82 90 97 122 167 194 189 196 226 244 244 251 250 250 247 256 260 252 247 246 245
347 335 13 296 269 267 259 264 243 269 281 292 316 271 147 104 95 67 42 40 52 62 71 72 74 71 82 94 121 160 188 195 213 218 225 241 251 259 258 258 264 262 258 255
224 351 321 289 224 277 270 232 205 234 250 305 24 2 148 86 78 59 56 47 50 54 59 64 63 58 71 86 88 122 134 159 198 216 224 233 244 249 249 249 257 269 273 273
221 298 227 240 329 232 305 276 228 266 352 97 102 71 51 92 94 67 58 58 54 52 56 62 76 64 74 78 84 90 96 102 122 178 214 228 241 246 244 249 254 252 254 259
101 256 296 312 95 48 319 308 7 311 236 144 117 71 50 55 87 88 70 63 64 63 53 58 53 55 52 68 67 73 72 67 67 70 75 81 237 241 248 250 251 254 259 259
175 39 277 262 209 343 284 295 356 327 254 160 150 127 85 76 73 75 68 63 62 59 58 51 36 40 45 58 57 57 57 51 46 39 29 22 16 7 344 311 280 268 265 264
239 268 287 327 324 329 237 291 6 26 56 80 72 89 108 86 75 76 58 60 52 44 38 38 41 30 35 37 43 39 40 39 34 28 23 16 9 359 359 345 337 332 314 297
192 245 257 352 352 339 98 65 61 61 79 86 90 90 93 74 68 60 45 37 32 26 28 29 24 21 26 23 30 23 19 21 23 22 17 8 3 2 2 358 358 7 7 350
205 257 89 43 83 59 76 76 66 76 78 95 91 91 86 75 56 45 43 32 23 17 16 17 21 20 24 27 18 13 3 14 20 18 11 10 22 32 38 43 41 38 33 27
317 16 38 52 56 71 80 76 76 80 85 90 94 86 81 80 62 48 44 39 30 22 24 27 31 30 27 22 11 3 1 15 28 36 31 34 45 52 56 57 56 58 58 53
247 24 330 33 32 54 72 74 71 70 72 72 73 82 76 73 67 61 55 44 44 43 40 40 39 41 40 38 29 18 25 45 51 44 51 52 59 59 61 66 63 66 65 63
356 338 52 39 42 51 63 60 53 48 49 55 53 60 56 62 51 56 62 63 63 64 60 55 55 56 55 53 46 45 64 69 69 75 74 69 73 78 79 80 77 72 66 61
63 43 79 88 59 48 49 48 43 43 49 49 56 52 47 53 58 69 70 71 66 62 58 54 54 55 55 52 53 61 73 80 85 87 87 86 83 82 82 79 79 80 75 70
20 345 0 37 46 34 30 29 22 30 35 38 49 59 73 82 86 86 82 76 74 69 65 57 56 59 55 51 50 60 70 77 85 94 95 93 91 88 89 88 84 79 74 71
20 31 61 46 21 26 22 16 23 43 39 50 69 92 95 99 97 91 88 81 77 76 75 68 64 63 58 52 52 64 77 87 93 96 95 92 93 94 87 81 78 79 80 77
348 1 355 9 15 16 19 27 44 67 55 66 87 104 105 104 98 94 93 89 89 71 63 61 60 59 55 52 48 60 74 82 76 76 82 80 76 73 76 75 78 75 72 70
12 338 350 340 360 7 17 25 46 68 76 90 98 101 103 101 101 99 85 71 58 55 53 49 52 46 43 47 41 42 44 53 59 63 77 76 73 70 68 67 64 62 62 63
18 351 358 334 352 356 10 40 64 83 97 100 103 106 103 100 92 81 70 53 37 32 34 39 39 33 21 29 39 35 34 46 55 49 54 48 46 47 42 39 40 41 48 50
306 334 340 345 347 332 346 47 90 102 98 95 99 106 100 92 80 62 49 15 357 17 31 31 27 19 16 23 32 19 16 19 26 37 33 31 24 33 41 49 55 58 57 55
315 310 317 292 227 96 87 87 85 93 88 78 70 64 55 45 34 23 19 15 22 28 23 15 13 11 18 23 32 22 22 22 30 42 47 42 45 52 56 61 59 56 51 45
113 111 112 116 118 110 103 94 89 88 80 70 59 48 34 18 8 4 1 355 8 9 8 5 5 14 22 31 30 28 30 35 37 45 45 43 40 42 39 42 39 36 33 32
102 107 108 108 112 111 104 99 89 79 66 42 27 18 10 0 353 347 345 341 345 352 356 357 2 11 18 24 22 24 27 30 30 31 27 24 17 16 15 14 10 8 6 4
115 113 109 105 102 101 100 90 73 56 30 12 4 355 348 341 338 332 331 330 332 338 348 350 358 8 14 12 10 9 8 10 11 11 12 9 5 0 354 350 346 343 343 343
115 113 110 101 87 73 58 54 47 33 22 11 2 356 347 333 329 324 320 327 335 335 342 342 342 348 355 355 353 353 354 351 347 344 345 345 342 339 336 334 333 330 328 325
124 113 94 72 47 24 3 346 329 326 337 345 345 347 348 344 331 327 328 329 337 349 348 350 352 354 355 358 355 345 344 344 341 337 335 331 327 325 323 320 317 316 314 313
83 43 6 330 321 320 313 306 301 300 300 309 321 328 332 339 339 333 333 332 342 343 347 353 349 344 349 352 353 348 342 344 341 334 331 331 326 320 314 311 310 312 313 314
342 347 326 313 311 314 313 307 291 290 286 285 296 310 312 321 322 315 322 333 343 347 347 345 346 338 332 332 337 336 331 330 330 327 325 324 322 321 319 318 315 315 316 317
Height
1424 1426 1428 1429 1430 1429 1430 1427 1428 1417 1418 1410 1404 1401 1402 1402 1403 1396 1390 1385 1384 1380 1378 1381 1383 1390 1392 1395 1398 1401 1405 1410 1414 1417 1419 1423 1425 1428 1431 1433 1437 1440 1443 1445
1427 1425 1429 1428 1423 1424 1422 1417 1417 1412 1412 1408 1402 1399 1401 1403 1405 1403 1406 1402 1398 1393 1390 1390 1387 1396 1398 1398 1399 1400 1403 1407 1410 1412 1415 1419 1421 1424 1426 1428 1430 1432 1434 1436
1430 1430 1429 1428 1422 1418 1416 1412 1413 1416 1407 1404 1405 1399 1400 1405 1408 1407 1405 1407 1404 1400 1399 1391 1392 1406 1404 1404 1400 1407 1404 1405 1408 1410 1413 1415 1417 1419 1420 1421 1424 1426 1427 1428
1437 1430 1439 1415 1413 1413 1412 1408 1407 1406 1405 1405 1410 1407 1404 1407 1409 1411 1410 1408 1407 1407 1406 1402 1413 1418 1416 1408 1407 1411 1405 1407 1408 1410 1411 1413 1414 1415 1416 1417 1418 1420 1421 1421
1439 1434 1426 1417 1411 1417 1416 1409 1407 1406 1406 1406 1407 1409 1412 1412 1413 1414 1414 1413 1412 1411 1413 1413 1415 1415 1416 1407 1413 1411 1408 1411 1410 1410 1410 1411 1412 1412 1412 1413 1412 1413 1414 1414
1443 1437 1445 1420 1413 1415 1411 1414 1410 1404 1397 1403 1405 1409 1419 1419 1419 1416 1418 1419 1419 1419 1418 1417 1416 1420 1415 1414 1416 1412 1413 1413 1412 1411 1410 1409 1410 1409 1409 1408 1407 1407 1407 1407
1439 1435 1432 1422 1419 1414 1419 1423 1415 1409 1404 1405 1410 1413 1421 1420 1418 1418 1420 1418 1420 1422 1421 1421 1420 1419 1415 1416 1413 1415 1415 1415 1414 1412 1409 1409 1409 1408 1406 1405 1404 1403 1403 1403
1436 1437 1436 1425 1419 1422 1424 1421 1418 1416 1415 1415 1418 1420 1421 1423 1421 1421 1421 1420 1420 1421 1421 1419 1418 1416 1414 1415 1415 1415 1417 1415 1412 1410 1410 1412 1410 1407 1405 1404 1403 1401 1401 1400
1438 1432 1430 1430 1428 1428 1425 1423 1422 1420 1421 1421 1423 1422 1422 1422 1424 1425 1424 1424 1423 1423 1422 1421 1418 1417 1417 1416 1417 1417 1418 1415 1411 1409 1410 1411 1406 1405 1404 1402 1401 1400 1399 1398
1437 1437 1432 1432 1432 1430 1428 1427 1426 1424 1424 1426 1427 1428 1429 1428 1428 1428 1427 1428 1427 1427 1425 1425 1423 1420 1419 1418 1419 1419 1418 1417 1414 1415 1414 1411 1409 1407 1404 1401 1403 1401 1400 1400
1435 1436 1436 1436 1437 1436 1433 1431 1429 1429 1429 1429 1430 1432 1433 1432 1431 1432 1429 1429 1430 1430 1430 1427 1425 1424 1423 1421 1422 1423 1423 1421 1418 1419 1416 1414 1412 1409 1408 1408 1407 1406 1404 1403
1441 1443 1442 1444 1441 1440 1437 1435 1434 1434 1432 1432 1432 1432 1433 1432 1433 1431 1429 1432 1434 1434 1436 1435 1432 1431 1429 1428 1428 1428 1423 1421 1421 1422 1420 1420 1418 1417 1415 1413 1412 1411 1410 1408
1446 1445 1444 1444 1443 1441 1438 1436 1437 1437 1435 1435 1433 1432 1432 1432 1434 1434 1432 1435 1436 1437 1437 1437 1434 1431 1430 1430 1430 1429 1427 1426 1425 1424 1427 1425 1423 1421 1419 1418 1417 1415 1413 1412
1447 1445 1444 1444 1443 1443 1442 1441 1440 1439 1438 1437 1436 1435 1435 1436 1439 1438 1439 1439 1438 1439 1438 1438 1437 1434 1433 1433 1433 1432 1430 1429 1429 1431 1430 1427 1426 1424 1424 1423 1421 1419 1417 1416
1448 1447 1447 1446 1446 1445 1444 1443 1442 1441 1441 1441 1439 1440 1440 1439 1441 1441 1442 1443 1443 1442 1441 1441 1440 1438 1437 1437 1437 1436 1436 1436 1436 1433 1431 1430 1429 1427 1425 1424 1423 1422 1421 1420
1448 1448 1448 1447 1447 1446 1445 1445 1444 1444 1445 1444 1443 1444 1444 1444 1444 1445 1446 1447 1447 1445 1443 1443 1443 1443 1442 1441 1441 1441 1440 1438 1436 1434 1432 1432 1431 1428 1427 1426 1425 1424 1423 1421
1447 1448 1448 1448 1448 1447 1445 1446 1446 1446 1446 1446 1447 1447 1447 1446 1447 1449 1448 1448 1448 1447 1445 1445 1444 1444 1444 1444 1443 1441 1439 1437 1437 1435 1435 1434 1432 1430 1429 1428 1426 1424 1421 1420
1447 1448 1448 1448 1447 1447 1448 1448 1447 1447 1449 1449 1449 1449 1449 1449 1450 1450 1450 1450 1450 1449 1447 1447 1446 1445 1445 1443 1442 1441 1440 1438 1437 1437 1436 1434 1432 1430 1429 1427 1426 1425 1424 1422
1449 1448 1447 1447 1447 1449 1450 1449 1449 1450 1451 1451 1451 1451 1451 1452 1451 1451 1451 1451 1450 1449 1448 1447 1446 1445 1444 1442 1441 1440 1440 1438 1437 1435 1434 1433 1432 1430 1429 1428 1427 1425 1425 1424
1449 1449 1449 1449 1451 1451 1451 1451 1451 1451 1452 1453 1453 1452 1452 1452 1452 1452 1451 1450 1449 1449 1448 1447 1445 1443 1442 1441 1440 1439 1438 1437 1437 1435 1434 1433 1433 1432 1430 1429 1428 1427 1425 1425
1453 1453 1453 1453 1453 1454 1454 1454 1454 1454 1454 1454 1454 1453 1453 1452 1451 1451 1451 1450 1449 1448 1447 1445 1444 1442 1441 1440 1440 1439 1438 1437 1436 1435 1434 1434 1433 1432 1431 1429 1428 1427 1426 1425
1455 1455 1455 1455 1455 1455 1455 1456 1456 1456 1456 1455 1455 1454 1453 1452 1451 1450 1449 1449 1448 1447 1446 1444 1443 1442 1441 1440 1440 1439 1438 1437 1436 1435 1434 1433 1432 1432 1431 1429 1428 1428 1426 1425
1457 1457 1457 1457 1458 1457 1457 1457 1457 1457 1457 1456 1455 1454 1453 1452 1451 1450 1449 1448 1447 1446 1445 1444 1443 1442 1441 1441 1440 1439 1438 1437 1436 1435 1434 1433 1432 1431 1430 1429 1428 1427 1426 1425
1458 1458 1459 1459 1459 1458 1458 1458 1457 1457 1457 1456 1455 1454 1453 1451 1450 1449 1449 1448 1447 1446 1445 1444 1443 1442 1441 1440 1439 1438 1437 1437 1436 1435 1434 1433 1432 1430 1429 1428 1427 1426 1425 1424
1459 1459 1459 1459 1459 1459 1458 1458 1458 1457 1457 1456 1455 1454 1453 1451 1450 1449 1448 1447 1446 1445 1444 1444 1443 1441 1440 1440 1439 1438 1437 1436 1435 1434 1433 1432 1430 1429 1428 1427 1426 1425 1424 1422
1459 1459 1459 1459 1459 1459 1458 1458 1457 1456 1456 1455 1454 1453 1452 1450 1449 1449 1448 1447 1446 1445 1444 1443 1442 1441 1441 1440 1439 1437 1436 1435 1434 1433 1432 1431 1430 1428 1427 1425 1424 1423 1421 1420
1459 1459 1459 1459 1458 1458 1457 1456 1455 1455 1454 1453 1453 1452 1451 1450 1449 1448 1447 1447 1446 1445 1444 1443 1442 1441 1440 1439 1438 1436 1435 1434 1433 1431 1430 1429 1427 1426 1424 1423 1421 1420 1418 1417